Wind_Speed
20 20 19 18 17 15 15 15 14 13 12 12 12 10 9 8 7 7 6 6 5 5 3 2 2 3 4 3 1 2 4 8 9 10 9 9 11 12 13 14 13 13 13 14 15 16 17 18 19 21 21 21 21 21 21 21 20 21 22 22 23 24 25 24 24 23 23 22 23 23 24 24 25 25 25 25 25 25 25 25 25 26 27 28 29 29
22 22 21 21 20 18 17 17 17 17 15 15 15 14 13 12 12 12 11 11 10 9 7 6 5 5 5 7 6 4 4 7 10 12 13 12 11 11 13 15 16 16 15 16 17 18 18 18 19 21 23 24 24 24 24 23 23 23 24 25 26 27 27 27 27 26 25 25 25 26 26 27 28 28 28 28 28 28 27 28 28 29 29 29 30 31
23 23 23 23 22 21 20 20 21 20 18 17 17 17 17 16 16 16 16 15 14 13 12 10 10 9 7 8 11 10 8 9 12 13 15 14 12 11 14 16 16 16 17 18 19 20 21 22 21 22 23 25 26 27 27 26 26 26 27 28 29 30 30 30 30 29 29 28 29 29 29 30 31 31 31 32 32 32 31 31 31 32 32 32 33 33
25 25 25 24 24 24 23 23 24 23 21 21 21 20 20 19 19 19 19 19 18 17 16 15 14 15 12 10 12 14 13 12 13 15 17 16 14 15 17 19 18 17 18 20 22 23 23 24 24 24 25 26 27 27 28 28 28 29 29 30 31 32 33 33 32 32 32 32 32 32 32 33 33 34 35 35 36 35 35 35 35 35 35 36 36 36
26 26 25 25 26 27 26 26 26 25 24 24 24 24 23 22 22 21 23 24 22 20 20 19 18 19 20 16 14 15 15 15 15 17 20 20 19 20 22 22 21 19 20 23 24 25 25 25 27 28 28 28 28 28 27 27 28 29 31 32 33 34 34 35 35 34 34 35 35 35 36 36 36 37 37 38 39 38 38 38 38 38 39 39 38 38
29 28 27 28 28 29 29 29 28 26 26 27 27 27 26 26 26 26 27 28 26 24 24 23 21 22 24 23 20 17 17 16 17 20 23 23 23 24 26 26 24 22 23 25 26 26 27 29 30 31 32 32 31 30 29 29 30 31 32 34 34 35 35 36 36 36 36 37 37 38 38 38 39 39 40 41 41 41 41 41 41 41 41 41 41 40
32 31 30 30 29 31 32 31 30 27 28 30 30 30 30 30 31 30 30 30 29 29 29 28 25 24 26 28 26 23 21 20 20 22 26 26 26 27 29 30 28 26 27 27 28 29 31 33 34 35 35 34 33 33 32 32 33 34 34 35 35 35 36 37 37 37 38 38 39 40 40 41 41 42 43 43 44 44 44 44 44 44 44 44 43 42
35 33 32 32 32 33 35 33 31 29 31 34 33 33 33 33 33 33 33 33 32 32 31 32 31 27 26 29 30 28 27 26 25 25 26 28 31 31 32 33 33 31 31 31 32 34 35 36 36 36 36 36 35 35 35 35 35 36 36 36 36 36 37 37 37 38 39 40 41 42 42 42 43 44 45 46 47 47 47 47 47 47 46 46 45 44
36 36 34 34 35 35 37 37 34 33 35 37 37 36 36 35 35 36 36 35 35 33 32 35 36 31 28 31 33 32 31 31 30 29 28 30 33 35 35 36 37 36 35 34 36 38 39 39 39 38 38 37 36 36 37 37 37 38 37 37 37 38 38 39 39 40 41 42 43 43 44 44 45 47 48 49 50 51 51 50 50 49 48 48 47 46
37 37 36 36 37 37 39 41 39 37 38 39 40 39 39 37 38 39 39 38 37 35 34 38 40 35 31 34 37 37 35 35 34 33 32 32 34 36 38 39 38 38 37 36 39 42 43 43 43 42 40 39 38 39 39 39 40 40 40 39 40 40 40 41 41 42 44 45 45 46 46 47 48 50 51 52 53 53 53 52 52 51 50 49 49 48
39 38 38 38 39 40 41 43 43 42 40 41 42 42 42 42 42 41 42 41 39 38 38 41 42 38 34 37 42 42 39 39 39 37 36 36 35 36 38 38 39 40 40 40 44 46 47 47 47 46 44 42 41 41 42 42 42 42 43 43 43 44 44 44 45 46 47 47 48 48 49 51 52 53 54 54 54 54 54 53 53 53 52 52 51 50
42 41 40 40 40 41 43 44 45 45 45 44 45 45 46 46 46 45 45 44 41 41 42 44 44 42 38 39 45 45 43 44 44 42 41 39 38 39 38 39 41 44 45 46 48 49 50 52 52 51 48 46 45 45 45 45 45 45 46 46 47 48 48 48 49 50 50 50 50 51 52 54 56 56 56 56 56 56 55 55 55 54 54 54 53 52
43 44 43 43 43 43 44 46 47 47 48 48 49 48 49 50 49 48 49 47 44 44 45 46 46 44 43 44 47 48 47 47 47 47 46 44 43 43 43 43 44 45 47 49 50 51 54 56 56 55 52 49 48 47 47 48 48 49 49 49 50 50 50 50 52 53 52 52 52 54 55 57 58 58 58 58 58 58 57 57 56 56 56 55 54 54
44 45 46 46 47 46 47 48 48 49 51 52 52 52 52 53 52 52 52 51 48 47 48 48 47 45 46 49 50 51 51 51 50 49 48 48 48 48 48 47 46 47 49 52 54 56 58 59 59 59 56 54 52 50 50 51 52 53 53 53 53 53 52 54 56 56 55 54 55 57 59 60 60 60 60 60 60 60 59 59 59 59 58 58 57 56
46 48 48 49 50 49 49 49 48 50 54 55 56 57 56 56 54 54 54 53 51 49 49 50 50 49 50 52 54 55 56 56 55 52 50 50 52 53 52 50 49 49 51 54 57 59 61 62 62 61 60 59 57 55 54 54 55 56 57 57 58 57 58 59 59 59 58 59 61 62 63 63 63 63 63 63 63 62 62 61 61 61 61 60 59 59
48 50 50 51 52 51 51 51 51 53 56 57 58 60 61 60 57 56 56 55 54 52 50 52 53 53 54 55 57 60 60 61 61 59 57 56 56 57 56 54 52 51 53 55 57 60 62 62 62 62 62 59 58 58 58 59 60 60 60 61 62 62 63 63 63 62 62 64 66 67 67 66 66 66 66 65 65 64 64 64 64 63 63 62 62 61
47 49 49 50 52 53 52 53 54 55 56 57 59 61 62 62 60 59 57 56 57 55 51 52 53 54 56 56 58 61 62 63 65 65 65 64 63 62 61 59 57 55 55 56 58 61 62 63 64 63 62 60 60 61 62 63 63 63 63 64 65 65 66 66 66 66 66 67 69 70 69 69 68 68 68 67 66 66 66 66 66 65 65 65 64 64
47 48 49 49 51 53 53 54 56 57 57 58 60 61 60 61 61 62 60 59 60 57 52 51 53 55 57 58 61 63 62 64 67 67 67 67 67 66 64 61 58 56 54 53 54 56 58 61 64 64 62 61 61 61 63 65 66 66 66 66 67 68 68 68 68 68 69 69 70 70 70 70 70 69 69 68 68 68 68 68 68 67 67 67 67 67
48 48 50 50 51 53 54 55 57 60 59 59 61 61 60 60 60 61 62 62 62 60 55 54 55 56 58 60 62 63 63 66 69 69 67 67 67 67 64 61 57 54 52 50 51 54 56 58 59 60 60 59 59 62 64 65 66 67 67 66 67 68 68 68 68 68 69 69 69 70 70 70 70 70 70 69 70 70 70 71 71 70 70 71 71 71
52 51 50 51 53 55 57 58 59 61 62 62 62 63 64 62 61 61 62 63 64 62 59 57 57 58 60 62 64 65 67 69 70 70 69 68 69 69 68 66 63 59 54 51 52 58 60 59 57 56 58 61 62 63 64 63 64 66 66 66 67 67 67 67 68 68 68 68 69 69 70 71 71 71 71 72 72 72 73 73 74 74 74 75 75 75
55 53 51 52 54 56 59 61 62 62 63 64 64 66 66 64 63 63 63 65 66 65 63 60 58 58 62 64 67 70 71 72 72 72 73 72 72 73 72 71 68 65 60 55 55 60 61 59 58 59 61 62 63 64 64 64 65 66 66 68 68 69 69 69 69 69 69 70 71 71 72 73 73 74 74 74 75 76 76 77 78 78 79 79 79 80
56 55 54 54 55 56 59 62 65 65 65 66 67 67 68 67 67 67 66 67 69 68 67 66 60 57 61 66 69 72 73 73 74 76 76 76 77 76 75 73 71 69 66 62 61 64 67 68 70 70 69 68 68 68 67 67 68 70 71 72 73 73 73 74 74 74 74 74 74 75 76 76 76 77 77 77 78 79 80 81 82 82 83 83 83 84
56 56 56 57 57 57 59 62 65 67 67 68 68 68 69 70 71 72 70 70 72 71 72 72 66 59 61 66 69 72 73 73 76 78 78 77 78 77 75 74 72 70 68 66 64 65 67 68 67 66 68 69 69 68 66 66 69 72 74 75 76 77 78 80 79 79 78 79 79 79 78 79 80 80 80 80 81 82 83 84 85 86 86 86 87 87
54 55 55 55 55 56 57 59 61 63 64 65 65 66 67 68 69 71 71 71 71 70 71 74 69 60 60 63 66 68 71 72 74 77 78 78 77 75 73 71 70 69 68 67 65 66 67 65 60 58 59 60 61 63 65 68 71 75 78 79 80 81 82 82 81 81 81 81 80 80 80 81 83 83 82 82 83 85 86 87 89 89 90 90 91 91
54 54 52 51 51 52 53 56 57 58 59 60 60 61 63 64 67 69 69 70 69 67 69 72 68 61 59 61 62 65 68 70 72 75 78 80 79 77 74 72 71 71 71 71 70 70 71 71 68 67 66 67 69 72 74 75 74 73 75 77 78 80 80 80 80 82 83 84 83 83 84 85 84 84 84 86 88 90 91 91 92 93 93 94 94 95
56 55 53 53 52 52 53 55 56 57 58 59 59 60 62 64 67 69 69 70 70 70 70 70 69 65 62 62 65 67 69 71 72 74 77 80 82 81 80 79 76 75 76 77 76 76 76 76 77 76 76 77 79 80 80 79 74 70 72 75 77 78 79 80 83 85 88 91 91 91 90 90 90 90 92 93 93 93 92 93 94 94 96 97 98 98
59 57 57 56 55 55 56 57 58 57 58 59 59 60 62 65 69 72 72 72 74 76 73 71 74 74 68 65 68 72 74 75 75 75 77 79 82 83 84 84 84 83 82 82 82 82 82 82 82 82 82 82 83 84 84 83 80 80 81 82 83 84 84 86 89 91 94 97 98 97 97 96 97 97 97 96 94 94 94 95 96 97 99 100 100 100
63 62 61 60 60 60 60 61 62 61 60 59 59 60 62 65 69 73 75 77 79 82 78 73 78 81 75 71 72 76 78 79 79 79 81 82 83 85 85 86 87 88 88 88 88 88 87 87 87 87 86 85 85 86 86 86 86 87 86 85 86 88 90 93 95 96 98 100 101 101 101 101 101 101 100 99 98 98 99 101 102 103 104 104 103 103
68 67 66 65 64 64 65 67 67 67 65 63 61 61 64 67 69 71 76 79 83 86 85 81 83 84 80 77 78 80 83 84 84 84 84 84 85 86 86 86 87 89 90 91 91 91 91 91 90 90 90 88 87 87 88 89 89 90 90 90 91 92 94 96 98 99 99 101 102 104 104 105 105 105 104 103 103 104 106 107 108 108 108 107 107 105
73 72 71 71 69 67 68 71 73 73 71 67 64 65 68 70 70 73 77 80 83 87 88 88 88 86 83 83 84 85 86 87 88 88 88 87 87 87 87 87 88 89 90 91 90 90 91 91 92 92 92 91 91 90 90 91 92 93 94 95 96 96 97 98 100 101 102 103 105 106 107 107 108 108 108 108 108 109 110 111 111 111 111 111 109 108
79 78 77 78 75 70 70 75 78 78 77 71 66 68 72 73 73 76 80 82 85 88 89 89 89 87 86 87 89 90 91 92 92 93 92 91 90 90 89 89 89 90 90 91 91 90 91 91 92 93 94 94 95 95 95 96 97 98 98 99 100 100 101 103 104 105 106 106 107 109 109 110 111 111 111 112 112 112 112 113 113 113 113 112 111 110
82 83 83 84 82 75 73 79 82 83 81 74 69 72 77 79 79 80 83 86 89 91 90 90 91 90 88 89 90 93 95 96 97 97 96 96 95 94 92 91 91 91 92 93 93 94 94 94 94 95 96 97 98 99 100 101 102 102 103 103 103 104 106 107 109 109 110 111 111 111 111 112 113 112 112 113 113 113 113 113 113 113 113 112 111 110
83 85 85 88 88 82 79 83 86 87 84 76 74 80 83 84 84 84 86 89 92 93 94 94 94 93 92 92 92 95 97 98 98 99 98 98 98 97 96 95 94 94 95 96 97 98 98 98 99 100 101 101 102 103 105 106 106 107 107 107 108 110 111 112 113 113 114 114 112 110 111 112 113 113 113 113 113 112 112 112 111 111 110 108 107 105
84 87 88 90 90 86 83 86 90 90 84 79 81 87 87 87 88 89 90 93 94 95 96 97 97 97 97 97 97 98 99 99 98 98 98 98 98 99 99 98 98 98 99 100 102 103 103 103 104 105 106 107 107 108 109 110 110 111 111 112 113 115 116 116 116 116 117 115 112 110 111 112 113 113 112 112 111 110 110 109 108 107 106 104 102 100
86 89 90 92 92 90 87 89 92 91 85 84 88 90 90 91 93 94 96 97 97 97 98 99 100 100 101 101 100 101 102 101 99 99 100 100 101 101 102 102 102 103 103 103 105 106 108 109 109 110 110 111 112 113 113 114 114 115 116 117 118 118 118 118 117 116 116 113 110 109 110 111 110 110 109 109 108 108 107 107 105 104 102 100 98 97
91 93 94 95 95 94 93 93 94 92 88 87 90 92 93 95 97 98 100 102 101 101 101 101 102 102 103 103 103 104 105 105 104 103 104 105 105 106 106 107 107 107 107 108 108 110 111 113 114 114 115 116 117 117 117 117 118 119 120 120 120 119 118 117 115 112 109 108 107 108 108 107 106 106 105 105 105 105 104 103 101 99 98 97 95 93
97 98 99 99 100 100 99 99 99 98 94 91 93 96 98 98 100 102 105 106 105 105 104 104 105 105 105 105 105 106 109 110 110 110 110 110 110 111 111 111 112 112 112 112 112 113 114 115 117 118 120 121 121 121 121 121 121 122 122 120 119 117 115 113 110 107 106 106 107 106 105 104 103 102 102 102 101 101 101 99 98 96 95 93 91 89
101 101 103 104 104 103 104 105 104 103 100 97 97 100 102 102 104 106 108 109 109 108 108 108 108 108 108 108 109 110 111 113 115 116 115 115 115 116 116 116 116 116 116 115 116 116 116 117 119 121 122 122 122 122 123 123 122 122 120 117 116 114 111 109 107 106 105 105 104 103 101 100 100 99 99 99 98 98 97 95 94 93 92 90 87 84
104 105 106 108 108 107 108 109 109 108 106 103 102 102 104 105 107 109 111 113 112 112 112 112 112 113 113 113 113 114 115 117 118 119 119 119 119 120 120 120 120 120 119 119 118 118 118 119 120 121 121 121 121 121 121 121 120 118 116 113 111 109 108 106 105 104 103 101 100 99 97 97 97 97 96 96 95 94 93 91 90 89 87 85 82 78
107 108 110 111 112 112 112 113 113 112 111 110 108 107 107 108 111 114 115 116 115 116 116 116 116 116 116 117 117 118 118 119 120 121 121 122 122 122 122 123 123 122 121 120 119 118 117 117 117 117 117 117 116 116 116 116 114 113 111 108 107 106 105 104 102 101 100 98 96 94 94 94 94 94 93 92 91 90 88 87 86 84 82 79 75 72
109 111 112 113 114 115 116 116 116 116 116 115 114 113 112 113 115 117 118 118 118 118 118 118 118 118 119 119 120 120 121 121 122 123 124 124 124 124 123 123 122 121 120 118 116 114 113 111 110 110 110 110 110 110 110 109 108 106 105 104 103 102 101 100 99 98 97 94 92 91 91 91 90 90 88 87 86 84 83 83 82 79 76 72 69 68
111 113 113 114 116 117 118 118 119 119 120 119 119 118 118 118 119 120 121 120 120 120 120 120 120 121 122 122 123 123 123 123 123 123 124 124 123 121 120 118 117 115 112 110 108 106 105 104 103 103 103 103 103 103 103 103 102 102 101 100 99 97 96 96 96 94 92 90 88 88 88 88 87 85 84 82 81 80 80 79 76 72 68 66 65 65
114 115 115 116 117 118 119 120 121 121 122 122 122 122 123 123 123 123 123 123 123 122 122 123 123 124 124 125 125 124 123 122 120 119 117 116 115 114 112 110 109 106 103 102 101 100 99 99 99 99 98 98 98 97 97 97 98 98 97 96 94 93 93 93 91 89 87 86 85 85 85 84 83 81 78 77 77 76 74 72 68 65 63 63 63 62
117 117 118 118 119 120 121 122 122 124 125 125 126 126 127 126 126 126 126 126 125 125 125 124 124 123 123 123 121 119 117 116 114 113 110 108 106 105 104 103 101 99 97 96 96 96 96 96 96 96 95 95 94 93 92 92 93 93 93 92 91 90 90 89 87 85 83 82 82 82 82 80 78 75 74 74 73 70 66 64 62 61 61 61 61 60
120 121 121 122 123 124 124 123 124 127 129 130 130 130 130 129 128 127 127 127 126 124 123 121 120 118 117 116 114 112 110 109 107 106 105 103 101 100 99 97 95 94 92 91 92 93 93 93 93 93 92 91 90 89 89 89 89 89 89 88 88 87 86 84 82 80 79 79 79 79 77 74 72 71 71 70 66 62 60 60 59 59 59 60 58 57
124 125 126 125 126 126 126 125 127 129 131 132 131 131 130 128 126 126 125 123 120 118 116 115 113 112 110 108 107 105 103 102 101 100 99 98 97 96 95 94 92 90 89 89 89 90 90 91 91 91 90 88 87 86 86 85 85 85 84 84 83 83 81 79 77 76 75 75 75 73 71 69 68 68 67 63 59 56 57 57 57 57 58 57 55 54
126 128 129 128 128 128 127 126 127 129 129 129 128 126 124 123 121 120 118 116 113 111 110 109 108 106 104 102 101 99 97 96 96 95 95 95 94 93 93 92 90 88 87 86 87 87 87 88 89 88 87 86 85 83 82 82 82 81 80 80 79 78 77 75 73 72 72 71 69 67 66 65 66 64 61 57 54 54 55 55 54 54 55 54 52 51
126 127 127 126 127 126 125 123 123 124 123 122 121 119 117 117 116 115 112 110 108 106 105 103 101 100 99 97 96 95 92 91 91 91 90 90 90 91 90 89 88 86 85 84 83 83 84 85 84 83 83 83 81 80 80 79 78 77 76 75 74 73 72 71 70 69 68 66 64 63 63 63 61 58 54 52 52 53 53 52 51 51 51 50 49 49
122 122 122 122 122 122 120 119 119 118 116 115 115 114 113 113 112 111 108 106 105 103 101 99 97 96 95 94 92 91 89 87 87 87 86 85 86 86 87 86 85 84 83 83 81 80 81 80 78 77 77 77 77 77 77 77 75 74 73 72 70 69 68 67 66 64 62 61 60 61 61 59 55 52 50 50 50 51 50 48 47 47 47 47 46 46
118 118 118 119 119 117 115 115 114 113 110 109 109 110 109 108 108 106 104 103 102 100 98 97 95 94 93 92 90 88 85 83 83 83 82 81 81 81 81 81 81 81 81 80 79 78 77 76 74 73 73 73 72 72 73 73 73 72 70 68 67 66 65 63 60 59 58 58 58 58 56 53 50 47 47 47 48 47 46 44 44 44 44 44 44 43
114 114 115 117 116 113 110 108 107 106 104 103 103 103 102 103 104 103 101 100 98 97 95 94 92 91 90 89 88 85 82 80 79 79 79 77 76 75 75 75 76 77 77 77 75 74 72 72 72 71 70 69 69 69 69 70 70 68 66 64 63 63 61 58 55 55 55 56 56 53 50 47 46 44 44 44 43 43 43 42 41 40 38 38 39 40
Wind_Direction
265 266 268 270 271 269 271 275 276 276 277 281 284 287 288 285 282 279 276 273 268 262 256 260 278 295 301 299 194 180 297 305 304 302 305 312 316 319 315 308 307 305 300 300 300 301 300 297 295 293 292 292 291 292 293 295 296 297 297 296 293 291 291 292 291 291 291 291 292 292 292 291 291 291 291 290 289 289 290 291 292 293 293 293 294 293
265 267 268 268 269 268 268 269 271 272 273 276 280 283 283 284 285 284 281 278 274 269 265 258 254 259 276 287 276 226 236 276 285 291 298 306 312 317 316 310 307 305 301 301 301 301 299 296 295 295 295 293 292 291 291 293 294 293 292 292 291 289 289 290 290 291 290 290 290 290 291 291 290 290 290 290 289 288 288 289 290 290 291 291 291 291
264 265 266 268 270 269 268 267 268 272 275 276 277 278 280 282 282 283 284 283 279 275 274 272 268 261 251 263 276 272 260 270 283 289 294 299 301 305 310 308 302 298 297 299 301 302 301 297 295 295 297 296 294 292 292 293 294 292 290 289 288 288 288 288 290 291 291 290 289 289 290 290 290 290 290 290 289 289 289 289 290 291 292 292 292 290
263 264 268 271 272 271 270 270 271 274 277 277 277 278 278 278 279 283 283 278 275 276 278 279 278 276 266 256 267 277 277 280 288 292 292 292 292 295 300 300 296 293 293 296 298 300 299 295 292 291 292 293 291 290 290 292 292 290 289 288 287 287 287 288 289 290 291 291 290 289 289 290 290 290 291 290 290 290 290 291 292 293 294 294 294 292
262 264 267 268 268 270 271 271 272 275 277 277 277 277 276 276 277 276 273 272 274 277 279 279 280 282 280 273 269 273 279 284 288 290 288 289 290 291 292 291 288 290 294 296 296 297 296 294 291 291 291 291 291 290 290 291 290 287 286 285 285 284 285 285 287 287 287 288 287 287 287 287 288 289 289 290 290 290 290 291 292 293 294 294 294 293
260 261 262 262 263 267 269 270 271 274 276 275 275 275 274 274 271 268 269 274 278 279 278 278 281 285 285 283 280 276 277 281 285 285 284 286 290 292 291 287 285 291 296 296 295 296 296 295 294 294 295 295 294 292 291 290 289 286 283 282 282 282 282 282 283 283 284 284 284 284 285 285 286 287 287 288 288 289 289 290 291 292 292 292 292 292
257 259 260 261 263 265 265 267 269 272 272 271 272 273 272 271 271 271 273 275 278 278 279 280 281 283 286 287 286 284 282 280 280 282 285 288 290 290 289 288 289 294 296 294 294 294 294 294 294 295 296 296 295 293 289 287 287 285 282 281 281 281 281 281 282 282 282 283 283 283 284 284 285 286 287 287 288 288 289 289 290 291 291 292 292 291
255 257 259 261 263 263 265 268 269 270 269 268 269 269 269 270 272 274 275 276 277 279 282 284 281 282 285 286 287 287 287 285 283 282 285 288 287 287 288 290 292 294 294 293 293 293 293 292 292 292 293 294 293 290 287 285 286 285 283 283 283 282 282 282 282 283 283 283 283 283 283 284 285 287 288 288 289 289 289 290 291 291 292 292 292 291
253 256 258 260 261 263 266 268 268 266 265 266 267 267 269 271 271 273 275 276 277 280 283 282 281 284 285 284 285 285 285 284 284 283 282 284 286 288 289 290 292 293 291 291 293 293 292 291 290 289 290 291 291 289 286 286 287 286 285 284 284 284 284 284 284 285 285 285 285 284 284 284 286 288 289 289 289 290 290 291 291 292 292 292 292 291
253 255 257 258 260 261 262 264 265 263 262 264 267 268 270 270 270 271 273 273 275 278 279 278 280 284 286 285 284 282 282 281 281 281 281 282 284 287 289 291 293 294 290 289 293 294 291 290 290 289 289 291 291 290 287 286 286 286 286 286 286 285 285 285 286 287 287 287 286 285 285 286 287 288 289 289 289 290 290 291 291 291 291 291 290 290
255 256 257 258 258 259 260 262 264 265 265 265 266 268 269 268 268 269 270 272 274 276 275 276 279 282 284 284 282 282 284 283 283 282 282 282 282 285 288 289 291 292 290 289 293 293 291 291 291 290 291 291 292 291 289 288 287 287 288 288 288 287 286 286 287 288 288 289 287 286 285 287 288 289 289 289 289 289 289 290 290 290 290 289 289 289
259 259 259 259 259 260 262 263 264 266 267 266 266 266 267 268 268 269 269 271 272 273 273 275 278 281 282 280 279 282 283 283 284 284 283 283 284 284 283 283 285 288 289 289 291 291 291 291 291 291 291 291 292 291 290 290 289 289 289 289 291 289 286 286 288 289 288 289 288 287 287 287 288 289 288 288 288 288 289 289 289 289 289 289 288 288
260 262 263 263 262 262 263 264 266 267 268 268 268 268 268 268 269 270 271 271 271 272 273 275 278 282 284 281 280 282 282 282 283 284 285 286 286 284 283 282 284 287 288 289 289 289 289 289 289 290 291 291 291 291 291 291 290 290 290 290 292 291 288 287 290 289 287 288 289 288 288 288 287 287 287 288 288 288 288 289 289 289 289 288 288 288
261 262 263 264 264 264 263 265 268 269 270 270 270 269 269 269 270 270 271 272 273 273 274 277 279 281 282 281 281 281 281 280 281 282 284 285 285 284 283 284 285 287 288 289 289 289 288 289 290 291 292 292 292 291 291 291 291 291 291 291 292 291 289 288 290 289 286 286 289 289 288 288 287 287 287 287 287 288 288 289 289 289 289 289 289 289
260 260 262 263 264 265 266 267 269 269 270 270 271 271 270 269 270 271 272 273 274 275 277 278 280 280 280 280 280 280 279 279 279 280 280 279 279 279 279 281 282 284 285 286 288 288 288 289 290 291 292 292 292 292 291 291 291 290 290 291 291 291 289 288 289 288 285 285 288 289 288 287 286 286 286 287 287 288 289 290 290 290 290 290 290 290
261 262 263 265 265 266 266 267 267 266 267 268 270 271 271 271 271 271 272 273 274 274 275 277 279 281 281 281 282 282 283 284 284 284 282 280 279 279 280 281 281 283 284 285 286 286 287 288 288 288 289 289 290 291 291 290 290 289 289 290 290 289 289 288 288 287 285 284 286 287 287 287 286 286 286 287 288 288 289 290 290 290 290 290 290 290
262 264 265 266 267 267 267 266 266 264 264 265 266 267 269 272 273 272 271 271 271 271 271 272 275 277 278 279 279 280 282 283 284 284 284 284 284 284 284 285 286 287 287 287 287 286 285 284 284 285 285 285 286 288 288 288 288 288 288 288 288 287 287 287 286 285 285 284 285 286 286 286 286 286 286 287 288 288 289 289 289 289 289 289 289 289
261 263 264 265 267 268 269 268 267 266 265 265 266 267 269 271 273 275 275 273 273 273 273 273 273 273 274 274 274 275 277 278 278 279 280 282 284 285 286 288 289 292 294 295 294 290 286 284 282 282 282 283 284 285 285 286 287 287 286 286 286 285 285 285 284 284 284 284 284 285 285 285 285 286 286 286 287 287 288 288 288 288 289 289 289 289
261 261 263 265 266 267 268 267 268 269 269 268 269 270 270 270 272 274 276 276 277 278 277 275 274 274 273 273 274 274 275 275 276 277 279 280 281 282 283 284 285 288 292 294 293 291 290 288 284 281 283 284 285 286 286 286 286 285 285 285 284 283 283 283 283 283 283 283 283 284 284 284 284 285 286 286 286 286 287 287 288 288 288 288 288 288
259 259 261 264 265 266 266 266 266 268 269 269 270 270 271 271 272 273 274 275 276 276 275 274 274 275 275 275 275 275 274 274 275 277 278 279 279 280 280 280 280 280 281 282 283 284 286 285 282 280 283 285 285 287 287 286 286 285 284 283 282 282 282 282 282 282 282 282 282 282 283 283 284 285 285 286 286 286 287 287 288 288 288 288 288 288
261 260 259 260 262 265 266 267 267 267 268 269 270 271 272 273 272 272 272 272 273 273 273 272 273 275 277 277 277 277 276 277 278 278 279 278 278 278 279 280 280 279 277 275 273 274 277 278 277 280 285 285 285 286 287 286 286 284 284 284 283 283 283 283 282 282 282 282 282 282 283 283 284 285 285 286 286 286 286 287 287 287 287 287 288 288
263 263 261 259 260 262 265 268 269 269 268 269 270 271 273 273 272 271 271 271 271 272 272 271 270 272 275 277 278 279 279 280 279 279 279 279 279 279 279 280 280 279 278 276 272 270 271 274 277 280 283 283 284 285 285 286 286 286 286 286 286 286 285 285 284 284 283 283 283 283 283 283 284 284 284 285 285 285 286 287 287 287 288 288 288 289
265 264 262 261 260 260 263 266 269 271 272 272 272 273 273 273 274 273 273 272 272 273 274 273 271 269 270 272 274 277 278 279 279 278 278 277 277 278 279 279 279 279 279 278 276 273 273 275 278 281 284 285 285 285 285 287 288 288 288 287 287 287 286 286 285 284 284 283 283 283 283 284 284 284 284 284 285 286 287 287 287 287 288 288 289 289
266 265 264 264 263 262 262 263 265 269 272 274 275 276 276 277 276 276 275 274 274 275 276 275 275 273 271 271 271 273 275 277 278 278 278 278 277 277 278 278 279 279 279 279 278 276 277 277 277 278 281 283 283 283 284 285 286 287 287 287 287 286 287 287 286 285 284 283 283 284 285 286 286 285 285 285 286 287 287 287 287 288 288 288 288 288
265 265 265 265 265 264 264 264 264 265 267 270 273 276 277 278 278 278 278 277 277 276 275 276 277 276 274 274 273 273 273 274 276 278 280 281 282 282 282 281 281 281 281 281 280 280 280 280 278 277 277 277 278 280 282 284 286 286 285 285 285 286 285 284 284 284 284 284 285 287 288 288 286 285 284 284 286 288 287 287 287 288 288 288 287 287
265 266 265 264 263 263 263 264 265 266 267 269 270 273 275 278 279 279 280 280 280 279 277 278 279 277 275 276 277 276 275 276 277 279 281 283 285 286 286 286 285 284 284 284 284 283 283 282 282 281 280 279 280 280 282 283 283 282 282 283 284 284 283 282 283 284 284 285 287 289 288 287 285 284 284 285 287 288 287 288 288 288 287 287 287 287
268 267 267 266 265 264 264 264 265 266 268 269 271 273 275 277 279 280 280 281 280 279 278 280 281 278 276 276 277 278 278 278 279 280 280 282 283 285 286 287 287 287 286 285 285 283 282 282 282 281 281 281 281 281 282 281 280 280 280 282 283 283 283 283 283 284 285 287 288 288 288 287 286 286 287 288 289 290 290 290 289 288 288 287 287 287
270 269 269 269 269 268 267 267 266 266 266 267 270 272 275 276 278 280 282 282 281 279 279 279 279 279 279 279 279 279 280 280 280 280 281 281 282 283 285 286 287 287 286 285 284 283 283 282 282 282 282 281 281 282 282 282 282 281 281 281 281 281 282 283 284 285 286 287 288 288 289 289 289 290 291 291 292 292 292 291 290 289 289 288 288 288
272 272 271 270 269 270 270 269 269 268 267 267 268 270 271 272 274 277 279 280 281 281 281 280 279 280 283 283 282 281 281 281 281 281 281 282 283 284 285 286 286 286 285 284 284 284 284 284 284 283 283 282 282 282 283 283 283 283 283 282 281 281 282 283 285 286 287 287 288 289 290 290 291 292 292 293 293 293 292 291 291 290 290 290 289 290
275 274 273 271 270 270 271 271 271 270 269 269 270 271 270 271 272 273 274 275 277 279 281 282 283 284 285 285 283 283 283 283 283 282 283 283 283 284 285 285 285 285 284 284 284 285 285 285 285 285 285 285 285 284 284 284 284 284 284 284 284 284 285 285 286 286 287 288 288 289 289 290 291 292 293 293 292 292 291 291 291 290 290 290 290 290
277 276 274 273 271 270 271 272 272 271 271 271 272 272 272 272 271 271 272 274 275 276 278 280 282 283 284 285 285 285 285 284 284 284 284 284 284 284 284 284 284 284 284 284 284 284 284 284 284 285 285 286 286 286 286 285 285 285 284 285 285 286 286 286 287 287 287 287 288 288 289 290 291 291 291 291 290 290 290 290 289 289 289 290 290 290
277 277 277 276 274 273 272 272 272 273 273 274 275 274 273 272 272 272 274 275 275 276 277 278 279 280 281 282 284 285 285 285 285 286 286 286 286 285 285 284 284 283 283 283 284 284 284 284 284 284 284 284 285 285 285 285 285 285 286 286 287 287 287 287 287 287 287 288 288 289 289 290 290 290 290 289 289 289 289 288 288 288 288 288 289 289
276 276 277 276 276 275 274 274 274 274 274 276 276 274 272 273 274 274 275 275 275 276 277 278 279 280 280 281 281 282 282 283 285 286 286 287 286 286 285 285 284 284 284 284 284 284 284 285 285 285 285 285 285 285 285 285 286 287 287 288 288 287 287 287 287 288 288 288 289 290 290 290 290 289 289 289 289 288 287 287 287 287 287 288 288 289
275 275 275 275 276 276 275 274 274 274 276 277 276 275 275 276 276 276 275 275 276 277 278 279 279 280 280 280 280 280 280 281 282 283 283 284 284 284 284 284 283 283 284 284 284 285 285 285 285 285 285 285 285 285 285 286 286 287 288 287 287 286 286 287 288 288 289 290 291 292 291 290 289 288 288 288 287 287 287 287 287 287 288 289 289 289
273 273 274 274 275 275 275 274 274 274 276 276 276 276 277 277 276 276 276 276 276 277 277 278 279 280 280 280 280 280 280 280 280 280 280 281 281 281 281 281 282 282 282 283 283 284 284 284 284 284 284 285 285 285 285 286 287 287 286 286 286 286 286 287 288 289 290 291 291 290 289 288 287 287 287 286 286 286 286 287 288 288 289 289 290 290
272 272 272 272 273 273 272 272 272 273 273 274 275 276 276 276 276 277 277 277 277 277 277 278 278 279 279 279 280 280 280 280 280 279 279 279 279 279 279 280 280 281 281 281 282 282 283 284 284 285 285 285 285 285 286 286 286 285 285 285 286 287 287 288 289 290 290 289 288 287 287 286 286 286 286 286 286 286 287 287 288 289 289 289 290 290
272 272 273 273 272 272 272 272 271 271 270 271 272 273 273 274 275 275 276 277 277 277 277 278 278 278 278 278 278 279 279 280 280 280 279 279 279 279 280 280 280 280 281 281 282 282 283 284 284 285 285 285 286 286 285 285 285 284 285 286 286 287 288 288 288 288 287 286 286 286 286 286 285 285 285 285 285 286 287 288 288 289 289 289 289 289
274 274 274 274 274 274 274 274 273 273 272 272 272 272 273 273 274 274 275 276 276 276 277 277 277 277 277 277 277 278 278 279 279 280 280 281 281 281 281 281 281 281 281 281 282 282 283 283 284 284 284 285 285 285 285 284 284 284 285 286 286 286 287 286 286 285 285 284 285 285 285 285 285 285 285 285 285 286 287 287 288 288 288 288 289 290
275 275 275 275 275 275 275 275 275 275 274 274 273 273 273 274 274 275 275 275 276 276 276 276 277 277 277 277 278 278 278 278 279 280 280 281 281 281 282 282 282 282 282 282 282 282 282 282 282 283 283 283 283 283 283 283 283 284 284 285 285 285 284 284 284 284 284 284 284 285 285 284 284 284 284 285 285 286 286 287 287 287 287 288 290 292
275 275 275 276 276 276 276 275 276 276 275 275 274 273 273 273 273 273 274 274 275 275 276 276 277 277 277 278 278 278 278 279 279 279 280 280 280 281 281 281 282 282 282 282 282 282 282 281 281 281 281 281 280 280 280 281 281 282 283 283 283 282 282 283 283 283 283 283 284 284 283 283 283 283 284 285 285 286 286 286 286 287 288 291 293 294
273 274 274 275 276 276 276 276 277 277 277 276 276 276 275 274 273 273 274 274 275 275 276 276 277 277 278 278 278 278 278 279 279 280 280 280 280 280 281 281 281 281 281 282 282 281 281 280 280 279 279 278 278 278 279 279 280 280 280 280 280 281 281 282 282 282 282 283 283 283 282 282 283 283 284 284 285 286 286 286 287 289 291 294 294 293
271 272 273 274 275 276 276 277 277 278 278 278 278 278 277 276 276 276 276 276 277 277 278 278 279 279 279 279 279 280 280 280 280 280 280 281 281 281 281 281 281 281 281 281 281 281 280 279 278 278 277 276 276 277 277 278 279 279 279 279 279 280 280 280 281 281 282 283 282 282 282 282 283 283 284 285 285 285 285 287 289 292 294 294 292 290
271 272 272 273 274 275 276 277 277 278 278 278 279 279 278 278 278 278 278 279 279 280 280 281 281 281 281 281 281 281 281 281 281 281 281 281 281 281 281 281 281 281 281 281 280 280 279 278 277 277 276 276 276 276 276 276 277 277 278 279 279 280 280 280 281 281 282 282 282 282 281 282 283 284 284 284 284 285 287 290 292 294 294 292 289 288
271 272 272 273 273 274 275 276 277 277 278 278 278 278 278 278 279 280 280 281 282 282 282 282 282 282 282 282 282 282 282 283 282 282 282 282 281 281 281 281 281 281 280 280 279 279 278 277 276 276 276 276 276 276 276 276 276 277 277 278 279 279 279 279 280 280 281 281 280 280 281 282 284 284 284 283 284 288 291 293 294 294 292 289 288 288
272 273 273 273 273 274 274 275 276 277 277 278 278 278 279 279 280 281 281 282 282 282 282 282 282 282 282 282 282 282 283 283 283 283 283 282 282 281 281 280 280 279 279 279 278 278 277 277 276 276 275 276 276 276 275 275 275 276 276 277 277 277 277 278 278 279 279 279 279 279 281 283 284 284 283 285 289 293 294 294 294 292 289 288 288 288
274 274 274 274 274 275 276 276 277 277 278 278 279 279 280 281 281 282 282 282 282 282 282 282 282 282 282 282 282 282 282 282 282 282 282 281 281 280 280 279 279 279 278 278 277 276 276 276 276 276 276 276 276 276 276 276 276 276 276 276 276 276 276 277 277 278 277 277 279 281 283 283 283 283 285 289 293 295 294 293 291 289 287 287 288 287
275 275 276 276 276 277 277 277 277 278 278 279 279 280 281 281 282 282 282 282 282 282 282 282 282 282 282 282 282 282 281 281 281 281 280 280 280 279 279 279 278 278 277 276 276 275 275 274 275 276 276 277 277 277 276 276 276 276 275 275 275 275 276 277 277 277 277 279 281 282 283 282 283 285 289 293 295 294 292 289 288 287 287 287 287 286
275 276 276 277 277 277 278 278 278 278 279 279 280 281 282 282 282 282 282 282 282 281 281 281 281 282 282 281 281 280 280 280 279 279 278 279 279 279 279 279 278 278 277 276 275 274 274 273 274 275 275 276 276 277 276 275 275 275 275 274 274 274 275 276 276 277 278 280 282 282 281 282 284 288 292 294 293 290 287 286 287 287 287 286 285 284
275 276 276 276 276 277 277 277 278 278 279 280 281 282 283 283 283 283 283 283 283 283 283 283 282 282 281 280 280 279 278 278 277 277 276 277 277 277 278 278 279 278 278 277 276 275 274 274 274 274 274 274 274 274 274 274 275 274 274 274 274 274 274 275 276 278 279 280 280 280 281 284 288 292 293 291 288 285 285 287 287 286 284 284 283 282
275 276 276 276 275 275 276 277 278 279 279 280 281 282 282 283 283 283 283 283 283 284 283 283 282 281 281 280 279 278 278 277 277 277 276 276 276 276 277 277 277 277 277 276 276 276 276 276 276 274 273 273 272 273 273 273 273 273 273 273 274 274 275 276 278 279 279 278 278 280 283 287 290 291 288 285 283 284 286 286 284 283 283 283 282 281
276 276 276 275 275 276 277 277 279 280 280 281 281 281 282 282 283 283 283 283 283 283 282 282 281 281 281 281 280 280 280 279 279 278 278 277 277 277 276 276 276 276 276 276 276 276 277 277 277 275 275 274 274 273 272 272 272 272 273 273 274 274 276 277 277 276 275 276 278 282 286 288 288 285 282 281 283 285 284 282 280 280 282 283 284 284
Height
10810 10810 10810 10810 10811 10811 10811 10811 10811 10811 10811 10811 10810 10810 10810 10811 10811 10812 10812 10812 10812 10812 10812 10812 10812 10811 10809 10809 10808 10807 10805 10804 10803 10803 10803 10803 10801 10800 10800 10799 10799 10798 10797 10796 10795 10795 10795 10794 10794 10793 10793 10793 10793 10793 10792 10790 10789 10788 10787 10786 10786 10786 10785 10784 10782 10781 10779 10777 10776 10776 10775 10775 10774 10774 10774 10773 10773 10772 10772 10771 10770 10769 10768 10766 10765 10763
10807 10807 10808 10808 10808 10809 10809 10809 10808 10808 10809 10809 10808 10808 10808 10809 10809 10809 10810 10810 10810 10810 10811 10811 10811 10811 10809 10808 10807 10808 10807 10805 10804 10803 10802 10801 10801 10800 10798 10797 10797 10797 10796 10795 10795 10794 10793 10792 10791 10790 10790 10789 10789 10789 10788 10787 10786 10785 10784 10784 10783 10783 10782 10781 10779 10777 10776 10774 10773 10772 10772 10771 10771 10770 10770 10769 10769 10768 10768 10767 10766 10765 10764 10763 10761 10759
10804 10804 10804 10805 10805 10806 10806 10806 10806 10806 10806 10807 10807 10807 10807 10807 10807 10807 10807 10807 10807 10807 10808 10808 10809 10809 10809 10808 10806 10806 10806 10805 10803 10802 10801 10800 10800 10800 10799 10797 10796 10796 10794 10794 10793 10792 10791 10790 10789 10789 10788 10787 10786 10785 10784 10784 10783 10782 10781 10781 10780 10780 10779 10777 10776 10774 10772 10770 10769 10768 10768 10768 10767 10766 10766 10765 10764 10764 10763 10763 10761 10760 10759 10758 10756 10755
10801 10801 10801 10802 10802 10802 10803 10803 10803 10803 10804 10804 10804 10804 10805 10804 10804 10804 10804 10803 10803 10803 10804 10805 10805 10806 10806 10807 10805 10804 10804 10803 10802 10800 10799 10799 10799 10798 10798 10796 10795 10794 10793 10792 10791 10790 10789 10788 10787 10786 10786 10785 10783 10782 10781 10780 10779 10779 10778 10778 10777 10776 10775 10773 10772 10770 10768 10766 10765 10764 10764 10763 10762 10762 10761 10760 10760 10759 10759 10758 10756 10755 10754 10753 10751 10750
10798 10798 10799 10800 10799 10799 10799 10800 10800 10800 10801 10801 10801 10801 10802 10802 10802 10801 10799 10798 10799 10800 10801 10802 10802 10801 10802 10803 10803 10802 10801 10800 10800 10798 10797 10796 10796 10796 10795 10793 10793 10792 10790 10789 10788 10787 10786 10785 10784 10783 10782 10781 10780 10779 10778 10777 10776 10776 10775 10774 10774 10773 10771 10769 10767 10766 10764 10762 10761 10760 10759 10759 10758 10757 10756 10755 10755 10754 10754 10753 10752 10750 10749 10748 10746 10745
10794 10795 10796 10796 10796 10796 10796 10796 10797 10798 10798 10797 10797 10798 10798 10798 10797 10796 10795 10795 10796 10796 10797 10797 10798 10797 10796 10797 10799 10799 10798 10798 10797 10795 10794 10793 10793 10792 10790 10789 10788 10788 10787 10786 10784 10783 10783 10781 10780 10779 10778 10777 10776 10775 10774 10773 10773 10772 10772 10771 10770 10769 10767 10765 10763 10761 10760 10758 10757 10756 10755 10754 10753 10752 10752 10751 10750 10749 10749 10748 10747 10746 10744 10743 10741 10740
10789 10791 10791 10792 10793 10792 10791 10792 10794 10795 10795 10793 10793 10794 10793 10793 10792 10792 10792 10793 10793 10792 10792 10792 10794 10794 10792 10791 10793 10794 10794 10794 10794 10793 10791 10790 10789 10787 10786 10784 10784 10784 10783 10782 10781 10780 10779 10778 10776 10774 10773 10773 10772 10771 10770 10770 10769 10768 10768 10767 10765 10764 10762 10760 10758 10757 10755 10754 10752 10751 10751 10750 10748 10747 10746 10745 10744 10744 10743 10742 10741 10740 10738 10737 10736 10734
10786 10787 10788 10788 10789 10788 10787 10788 10790 10792 10791 10789 10789 10789 10789 10789 10789 10788 10788 10788 10789 10789 10788 10787 10788 10790 10790 10787 10787 10789 10789 10789 10789 10789 10788 10786 10784 10783 10782 10780 10779 10780 10779 10778 10776 10775 10774 10773 10772 10771 10770 10769 10769 10767 10766 10766 10765 10764 10763 10762 10760 10759 10757 10755 10753 10752 10750 10749 10748 10747 10746 10745 10744 10742 10741 10739 10738 10738 10737 10736 10735 10733 10732 10730 10729 10728
10783 10784 10785 10785 10785 10785 10784 10784 10786 10787 10786 10784 10784 10785 10785 10786 10785 10784 10784 10784 10784 10786 10786 10782 10781 10785 10787 10784 10783 10784 10784 10783 10783 10784 10784 10782 10780 10778 10777 10776 10775 10775 10774 10773 10772 10771 10769 10768 10767 10766 10765 10765 10764 10763 10761 10760 10759 10758 10757 10757 10755 10753 10752 10750 10748 10747 10745 10744 10743 10742 10740 10740 10738 10737 10735 10733 10732 10731 10730 10729 10728 10726 10725 10723 10722 10721
10779 10780 10781 10782 10782 10781 10780 10778 10779 10781 10781 10780 10780 10780 10781 10782 10781 10779 10779 10779 10780 10782 10782 10777 10776 10780 10783 10780 10777 10777 10778 10778 10778 10779 10779 10778 10777 10774 10772 10771 10770 10770 10769 10769 10767 10765 10763 10762 10761 10760 10760 10760 10759 10758 10756 10755 10754 10752 10751 10751 10750 10748 10746 10745 10743 10742 10740 10738 10737 10736 10734 10733 10733 10731 10729 10727 10726 10724 10723 10722 10721 10719 10718 10717 10715 10714
10776 10777 10777 10778 10777 10777 10775 10774 10773 10774 10776 10776 10775 10775 10775 10775 10775 10775 10774 10774 10776 10778 10776 10773 10772 10776 10779 10776 10770 10769 10771 10770 10771 10772 10772 10773 10773 10771 10769 10768 10766 10765 10765 10764 10762 10759 10757 10755 10754 10753 10754 10754 10754 10752 10750 10749 10748 10747 10746 10745 10744 10742 10741 10739 10738 10736 10735 10733 10732 10730 10728 10727 10726 10724 10723 10721 10719 10718 10717 10715 10714 10712 10711 10709 10708 10708
10771 10772 10773 10774 10773 10772 10771 10770 10769 10769 10769 10770 10769 10769 10769 10767 10768 10769 10769 10770 10772 10772 10770 10768 10768 10770 10775 10772 10765 10763 10765 10763 10763 10763 10764 10766 10767 10766 10765 10765 10763 10762 10760 10758 10756 10754 10751 10749 10747 10747 10748 10748 10748 10747 10745 10743 10742 10741 10740 10738 10737 10736 10735 10733 10731 10730 10728 10727 10725 10724 10722 10720 10718 10717 10715 10714 10712 10711 10710 10708 10707 10705 10703 10702 10701 10700
10767 10767 10768 10768 10768 10768 10766 10764 10764 10763 10762 10762 10762 10762 10762 10761 10761 10762 10762 10763 10766 10767 10764 10763 10764 10765 10767 10765 10760 10759 10758 10757 10756 10756 10756 10758 10759 10759 10759 10759 10759 10758 10756 10753 10751 10749 10745 10743 10741 10741 10742 10742 10742 10741 10739 10737 10736 10734 10733 10732 10731 10729 10728 10726 10725 10723 10722 10720 10718 10717 10715 10713 10711 10710 10708 10706 10705 10703 10702 10701 10699 10697 10696 10694 10693 10692
10764 10763 10762 10761 10761 10762 10761 10760 10760 10758 10756 10754 10754 10754 10755 10753 10754 10756 10755 10756 10759 10760 10759 10759 10760 10762 10760 10756 10754 10752 10751 10750 10750 10751 10751 10751 10751 10751 10752 10753 10754 10754 10752 10748 10745 10742 10739 10736 10735 10734 10734 10734 10734 10734 10733 10731 10729 10727 10726 10725 10724 10722 10721 10719 10718 10716 10714 10713 10711 10709 10708 10706 10704 10703 10701 10699 10697 10695 10694 10693 10691 10689 10687 10686 10685 10684
10759 10757 10756 10756 10755 10755 10755 10756 10757 10754 10749 10746 10745 10745 10745 10746 10748 10750 10749 10750 10753 10755 10755 10753 10753 10755 10754 10750 10746 10744 10743 10742 10743 10746 10748 10747 10745 10743 10745 10747 10749 10749 10747 10745 10742 10737 10732 10730 10729 10727 10726 10726 10726 10726 10726 10724 10723 10721 10719 10718 10716 10715 10714 10712 10710 10709 10707 10705 10704 10702 10700 10699 10697 10695 10693 10691 10690 10688 10686 10685 10683 10681 10679 10678 10677 10676
10753 10751 10751 10750 10749 10749 10750 10750 10750 10747 10742 10740 10739 10736 10734 10737 10741 10743 10744 10745 10746 10749 10752 10749 10747 10748 10746 10743 10737 10733 10732 10730 10731 10734 10736 10738 10737 10736 10737 10740 10743 10745 10744 10741 10738 10734 10729 10725 10723 10721 10720 10720 10719 10719 10718 10717 10716 10714 10713 10711 10709 10708 10706 10704 10703 10701 10700 10698 10696 10694 10693 10691 10689 10687 10685 10683 10682 10680 10679 10677 10675 10673 10672 10670 10668 10667
10749 10746 10746 10744 10741 10742 10743 10742 10740 10738 10736 10734 10732 10730 10728 10729 10731 10734 10737 10740 10739 10742 10748 10746 10744 10742 10738 10736 10731 10725 10725 10723 10720 10721 10721 10723 10725 10725 10727 10730 10733 10736 10737 10735 10732 10729 10725 10721 10718 10716 10715 10715 10714 10713 10711 10709 10708 10707 10706 10704 10702 10700 10698 10696 10695 10693 10691 10690 10688 10686 10684 10682 10680 10678 10676 10675 10673 10672 10670 10669 10666 10665 10663 10662 10660 10658
10744 10741 10739 10739 10736 10734 10734 10733 10729 10727 10728 10727 10725 10725 10726 10724 10723 10723 10726 10729 10729 10733 10741 10741 10739 10736 10732 10729 10724 10720 10721 10718 10713 10713 10715 10715 10715 10715 10718 10720 10723 10726 10726 10725 10723 10720 10718 10715 10712 10709 10708 10708 10707 10706 10705 10702 10700 10698 10698 10696 10694 10691 10689 10687 10686 10684 10682 10681 10679 10677 10675 10673 10671 10669 10668 10666 10665 10663 10661 10659 10658 10657 10655 10653 10651 10649
10737 10736 10733 10732 10731 10728 10727 10724 10720 10717 10719 10720 10718 10718 10719 10718 10718 10717 10716 10718 10719 10722 10729 10731 10729 10727 10724 10720 10716 10714 10714 10710 10706 10706 10709 10710 10709 10709 10712 10714 10717 10720 10720 10718 10715 10712 10711 10708 10706 10703 10702 10701 10699 10697 10696 10695 10693 10690 10689 10688 10685 10682 10680 10679 10677 10676 10674 10673 10671 10668 10666 10663 10662 10660 10659 10657 10655 10654 10652 10650 10648 10647 10646 10643 10641 10640
10729 10731 10730 10728 10725 10722 10718 10716 10714 10712 10710 10711 10711 10709 10709 10711 10713 10713 10711 10710 10709 10712 10717 10720 10721 10718 10714 10710 10707 10705 10703 10701 10700 10700 10701 10703 10703 10702 10703 10705 10709 10712 10714 10714 10710 10706 10704 10702 10700 10698 10697 10695 10692 10689 10687 10685 10684 10682 10679 10678 10676 10674 10672 10671 10669 10668 10666 10664 10662 10659 10657 10654 10652 10651 10649 10648 10646 10644 10642 10640 10639 10637 10635 10633 10632 10630
10721 10724 10726 10724 10720 10715 10710 10707 10706 10706 10704 10703 10702 10701 10701 10704 10705 10705 10705 10702 10699 10702 10707 10710 10715 10713 10705 10700 10697 10693 10691 10691 10692 10692 10692 10693 10693 10693 10694 10695 10698 10701 10704 10706 10703 10699 10697 10696 10694 10693 10692 10689 10685 10682 10679 10676 10674 10672 10670 10668 10666 10665 10663 10661 10660 10658 10657 10655 10652 10650 10647 10645 10643 10641 10639 10637 10636 10634 10632 10630 10629 10627 10625 10623 10621 10619
10713 10715 10717 10716 10715 10711 10705 10700 10696 10696 10697 10697 10696 10695 10694 10694 10694 10694 10697 10695 10690 10692 10696 10698 10708 10712 10700 10691 10688 10683 10681 10682 10681 10680 10681 10681 10681 10682 10684 10686 10687 10689 10692 10695 10695 10692 10690 10689 10687 10686 10685 10682 10678 10675 10671 10668 10663 10660 10659 10657 10655 10653 10652 10650 10648 10647 10645 10644 10642 10639 10637 10635 10633 10631 10629 10628 10626 10624 10622 10620 10618 10616 10614 10612 10610 10608
10704 10704 10705 10706 10707 10706 10701 10697 10691 10687 10688 10689 10688 10688 10686 10684 10684 10682 10686 10687 10683 10684 10684 10682 10696 10707 10697 10688 10684 10676 10672 10672 10668 10667 10669 10670 10671 10672 10674 10676 10677 10678 10680 10682 10684 10683 10682 10682 10682 10680 10677 10673 10670 10666 10663 10660 10654 10649 10647 10645 10644 10643 10640 10638 10637 10636 10634 10632 10630 10628 10626 10625 10623 10621 10619 10618 10616 10614 10613 10610 10608 10605 10603 10601 10599 10596
10693 10693 10695 10697 10698 10698 10695 10692 10688 10684 10683 10681 10680 10679 10677 10675 10674 10671 10673 10676 10675 10677 10674 10668 10681 10694 10689 10683 10680 10672 10667 10664 10659 10656 10655 10656 10660 10663 10666 10668 10668 10669 10669 10671 10673 10672 10671 10674 10676 10675 10671 10666 10663 10659 10655 10653 10649 10642 10637 10634 10632 10631 10630 10628 10628 10626 10624 10622 10619 10618 10617 10615 10612 10611 10609 10607 10605 10604 10602 10599 10596 10594 10591 10589 10586 10584
10684 10685 10688 10689 10689 10689 10687 10684 10682 10681 10679 10678 10677 10673 10670 10667 10663 10661 10662 10663 10665 10668 10664 10659 10668 10679 10678 10674 10671 10666 10662 10658 10654 10649 10644 10641 10644 10649 10653 10657 10659 10659 10658 10658 10661 10661 10660 10660 10662 10663 10661 10657 10653 10650 10647 10645 10642 10637 10630 10625 10621 10619 10618 10617 10616 10615 10612 10610 10609 10608 10607 10604 10602 10600 10597 10595 10594 10592 10590 10587 10584 10581 10578 10576 10573 10570
10677 10678 10680 10681 10682 10682 10679 10676 10675 10675 10674 10673 10674 10671 10667 10661 10654 10652 10653 10652 10652 10653 10652 10653 10656 10663 10668 10665 10660 10656 10653 10651 10650 10647 10640 10635 10632 10633 10636 10640 10645 10647 10645 10645 10646 10647 10647 10646 10646 10647 10647 10644 10641 10638 10637 10636 10634 10629 10623 10617 10612 10609 10606 10604 10604 10602 10598 10596 10596 10596 10594 10591 10589 10586 10584 10583 10581 10579 10576 10573 10570 10567 10564 10561 10558 10555
10669 10671 10671 10672 10674 10674 10673 10670 10669 10669 10668 10667 10668 10666 10662 10656 10648 10644 10643 10644 10641 10637 10642 10649 10643 10642 10655 10660 10652 10646 10642 10641 10643 10641 10637 10633 10629 10627 10626 10626 10629 10631 10631 10632 10632 10632 10632 10633 10633 10633 10633 10632 10628 10625 10624 10624 10623 10619 10615 10611 10604 10598 10594 10592 10591 10590 10587 10583 10582 10581 10579 10576 10573 10572 10570 10569 10568 10565 10562 10558 10555 10552 10549 10545 10542 10540
10659 10661 10662 10664 10665 10664 10663 10662 10660 10661 10663 10663 10663 10662 10657 10650 10644 10638 10633 10630 10626 10621 10632 10643 10633 10625 10639 10650 10646 10639 10633 10632 10633 10632 10629 10627 10625 10623 10621 10620 10618 10616 10614 10614 10614 10615 10616 10618 10619 10619 10619 10618 10616 10613 10611 10610 10608 10606 10605 10603 10597 10590 10585 10581 10580 10580 10577 10572 10569 10566 10563 10559 10556 10555 10554 10553 10552 10549 10545 10541 10538 10535 10532 10529 10526 10523
10647 10650 10652 10654 10656 10655 10653 10650 10649 10649 10653 10657 10659 10658 10652 10645 10642 10637 10628 10620 10613 10606 10612 10624 10623 10621 10629 10635 10633 10628 10623 10621 10621 10620 10619 10619 10618 10615 10613 10611 10607 10603 10600 10598 10598 10599 10600 10600 10601 10600 10601 10602 10602 10602 10599 10595 10594 10592 10590 10588 10584 10580 10577 10572 10569 10567 10564 10560 10556 10552 10548 10544 10541 10539 10538 10537 10534 10531 10526 10523 10520 10517 10513 10509 10506 10505
10633 10637 10639 10640 10644 10647 10645 10639 10636 10636 10641 10648 10654 10651 10642 10638 10639 10633 10622 10617 10610 10601 10601 10605 10607 10614 10620 10618 10616 10616 10612 10608 10606 10605 10607 10609 10608 10607 10605 10601 10596 10591 10587 10585 10585 10587 10587 10585 10583 10583 10583 10584 10585 10586 10584 10581 10579 10576 10573 10570 10567 10565 10563 10560 10556 10554 10551 10547 10543 10539 10535 10532 10528 10526 10524 10521 10517 10513 10509 10506 10502 10498 10495 10491 10489 10488
10617 10620 10623 10623 10628 10639 10639 10627 10622 10623 10627 10639 10648 10642 10630 10628 10630 10623 10614 10612 10607 10599 10600 10600 10599 10605 10610 10605 10601 10600 10596 10593 10592 10592 10594 10596 10596 10596 10594 10591 10587 10581 10576 10572 10572 10574 10573 10572 10571 10570 10570 10569 10569 10568 10567 10565 10562 10559 10557 10555 10552 10550 10548 10545 10541 10539 10536 10533 10529 10525 10522 10518 10515 10512 10508 10504 10500 10497 10494 10490 10486 10482 10479 10476 10473 10472
10606 10604 10607 10605 10608 10625 10630 10616 10609 10610 10613 10629 10640 10629 10616 10614 10615 10614 10610 10604 10597 10592 10595 10596 10594 10597 10601 10599 10594 10587 10580 10577 10577 10577 10579 10580 10580 10580 10581 10579 10575 10570 10567 10563 10560 10559 10559 10559 10558 10557 10557 10557 10556 10554 10551 10548 10545 10543 10541 10539 10538 10535 10532 10528 10525 10522 10520 10516 10513 10510 10507 10503 10499 10495 10491 10488 10485 10482 10479 10474 10470 10467 10464 10462 10459 10457
10598 10594 10595 10590 10590 10608 10616 10605 10597 10596 10603 10622 10625 10609 10602 10602 10602 10604 10601 10591 10585 10585 10585 10586 10585 10586 10588 10589 10587 10579 10571 10569 10567 10566 10566 10565 10563 10563 10563 10563 10561 10557 10555 10551 10547 10545 10545 10545 10543 10541 10540 10541 10540 10538 10534 10531 10529 10526 10525 10523 10521 10517 10513 10510 10508 10505 10501 10499 10497 10494 10491 10487 10482 10477 10474 10471 10468 10466 10462 10458 10455 10453 10450 10448 10445 10442
10589 10584 10583 10580 10579 10591 10600 10592 10583 10584 10598 10611 10604 10589 10591 10593 10589 10589 10585 10578 10578 10578 10574 10573 10574 10575 10574 10574 10573 10567 10561 10562 10562 10560 10557 10556 10553 10550 10549 10548 10546 10545 10543 10539 10534 10531 10530 10530 10529 10526 10524 10523 10521 10519 10516 10514 10513 10511 10509 10506 10503 10499 10496 10494 10492 10488 10484 10482 10480 10476 10472 10468 10464 10460 10457 10455 10451 10448 10445 10442 10440 10437 10435 10432 10430 10427
10581 10574 10571 10570 10569 10576 10584 10580 10571 10576 10591 10595 10584 10578 10580 10577 10573 10572 10566 10564 10569 10569 10565 10563 10562 10561 10560 10559 10557 10551 10545 10549 10553 10550 10547 10545 10542 10540 10538 10536 10534 10534 10532 10530 10526 10521 10516 10514 10513 10512 10510 10508 10505 10503 10500 10498 10496 10494 10490 10487 10485 10483 10481 10479 10477 10473 10469 10466 10463 10458 10453 10450 10447 10445 10442 10438 10435 10432 10428 10426 10424 10422 10419 10416 10414 10412
10568 10563 10560 10560 10559 10561 10567 10567 10562 10568 10582 10583 10573 10568 10567 10562 10559 10556 10549 10549 10553 10554 10554 10553 10550 10548 10546 10545 10543 10536 10529 10531 10536 10535 10534 10532 10528 10526 10526 10524 10523 10522 10520 10519 10516 10512 10507 10502 10499 10496 10494 10491 10488 10487 10485 10482 10478 10473 10469 10468 10467 10466 10463 10461 10460 10458 10453 10450 10447 10443 10439 10436 10434 10431 10427 10423 10420 10417 10414 10412 10410 10407 10405 10402 10400 10398
10552 10550 10547 10546 10546 10547 10549 10550 10551 10555 10567 10574 10566 10557 10555 10552 10548 10542 10536 10534 10537 10538 10540 10539 10535 10533 10533 10532 10531 10525 10517 10514 10514 10515 10516 10516 10513 10512 10511 10510 10509 10508 10508 10507 10504 10501 10497 10492 10487 10482 10478 10474 10471 10469 10466 10463 10458 10454 10452 10452 10452 10450 10448 10445 10443 10441 10438 10435 10432 10429 10427 10424 10421 10417 10414 10411 10407 10404 10401 10398 10396 10393 10391 10389 10388 10385
10537 10536 10535 10530 10531 10534 10532 10531 10533 10536 10546 10558 10555 10546 10543 10541 10535 10531 10524 10519 10522 10525 10524 10522 10519 10517 10518 10518 10517 10514 10508 10502 10498 10496 10498 10498 10496 10495 10494 10493 10492 10492 10493 10493 10490 10488 10486 10481 10475 10470 10465 10460 10455 10451 10447 10442 10439 10437 10437 10438 10437 10436 10434 10431 10429 10427 10425 10422 10419 10417 10414 10411 10408 10404 10401 10398 10395 10392 10389 10386 10383 10381 10378 10376 10375 10373
10525 10522 10520 10515 10516 10520 10517 10513 10515 10519 10525 10535 10539 10536 10533 10527 10521 10516 10508 10504 10509 10510 10507 10506 10505 10503 10502 10503 10502 10499 10496 10491 10486 10483 10483 10482 10480 10478 10476 10474 10473 10473 10474 10474 10472 10472 10472 10467 10460 10456 10452 10446 10441 10436 10431 10427 10424 10424 10424 10424 10423 10421 10418 10417 10415 10414 10411 10409 10406 10404 10401 10398 10394 10391 10389 10386 10383 10380 10377 10375 10372 10369 10365 10364 10363 10362
10513 10508 10504 10500 10500 10503 10500 10496 10500 10503 10506 10511 10517 10520 10521 10516 10508 10500 10492 10492 10495 10493 10489 10491 10491 10488 10487 10486 10485 10484 10481 10477 10474 10471 10469 10467 10465 10463 10460 10458 10456 10455 10455 10455 10454 10453 10453 10449 10444 10439 10435 10429 10425 10421 10417 10415 10413 10412 10411 10410 10408 10406 10404 10403 10401 10399 10396 10395 10393 10391 10388 10385 10382 10379 10376 10374 10371 10368 10366 10363 10360 10357 10354 10353 10352 10351
10501 10495 10491 10488 10486 10485 10482 10481 10484 10485 10485 10489 10494 10497 10500 10497 10489 10483 10480 10480 10481 10478 10475 10476 10475 10473 10471 10468 10466 10466 10464 10461 10458 10455 10452 10449 10448 10446 10444 10441 10439 10438 10437 10437 10437 10435 10433 10431 10427 10422 10417 10412 10408 10406 10403 10402 10401 10400 10398 10395 10393 10393 10392 10389 10386 10384 10382 10382 10381 10378 10375 10372 10370 10367 10364 10362 10360 10357 10354 10351 10348 10346 10344 10343 10341 10338
10490 10484 10482 10478 10474 10471 10468 10466 10466 10466 10466 10468 10470 10470 10472 10471 10467 10464 10464 10463 10463 10463 10461 10459 10457 10455 10451 10448 10447 10446 10444 10442 10441 10438 10434 10430 10427 10426 10425 10423 10421 10421 10421 10420 10418 10416 10414 10411 10407 10404 10400 10397 10395 10393 10391 10389 10387 10384 10382 10380 10380 10380 10378 10375 10372 10371 10370 10370 10368 10365 10362 10360 10357 10355 10353 10351 10348 10346 10343 10340 10338 10336 10335 10333 10329 10326
10477 10473 10472 10469 10463 10461 10457 10454 10452 10451 10449 10450 10449 10446 10446 10446 10444 10444 10445 10444 10445 10445 10443 10440 10438 10434 10430 10427 10425 10423 10422 10421 10419 10418 10416 10413 10410 10406 10405 10404 10402 10403 10406 10404 10400 10397 10395 10391 10388 10385 10383 10382 10381 10380 10379 10376 10373 10370 10367 10367 10368 10366 10363 10359 10358 10358 10358 10357 10354 10352 10349 10347 10345 10344 10343 10340 10337 10335 10333 10331 10328 10326 10324 10321 10318 10316
10462 10459 10458 10457 10453 10449 10446 10445 10443 10436 10431 10431 10431 10427 10426 10427 10427 10426 10427 10427 10426 10424 10422 10420 10419 10415 10409 10405 10403 10402 10402 10400 10397 10395 10394 10395 10393 10390 10388 10387 10385 10386 10389 10387 10382 10378 10375 10373 10370 10368 10366 10366 10367 10366 10365 10363 10359 10357 10355 10354 10354 10351 10347 10346 10346 10347 10346 10345 10342 10340 10337 10336 10335 10334 10331 10328 10326 10326 10324 10321 10318 10316 10312 10309 10308 10306
10445 10441 10440 10441 10440 10434 10432 10437 10434 10421 10412 10412 10412 10408 10409 10413 10414 10411 10409 10408 10407 10405 10402 10400 10398 10396 10391 10387 10386 10386 10386 10383 10379 10376 10374 10374 10373 10371 10370 10370 10370 10370 10372 10370 10365 10361 10357 10354 10353 10351 10351 10352 10352 10352 10351 10348 10346 10345 10343 10342 10340 10337 10335 10335 10336 10336 10335 10333 10330 10328 10327 10327 10325 10322 10319 10318 10317 10317 10314 10311 10308 10306 10302 10300 10298 10297
10426 10421 10419 10422 10424 10418 10418 10423 10418 10404 10397 10396 10394 10392 10394 10395 10396 10393 10389 10387 10388 10388 10385 10381 10377 10376 10375 10373 10372 10371 10370 10368 10364 10361 10358 10356 10355 10354 10352 10352 10353 10355 10355 10353 10349 10345 10342 10338 10335 10335 10336 10337 10337 10337 10336 10335 10334 10333 10332 10330 10327 10325 10324 10325 10326 10325 10324 10321 10319 10318 10318 10317 10314 10311 10309 10309 10309 10307 10304 10301 10299 10297 10293 10291 10289 10287
10409 10402 10401 10403 10403 10399 10400 10405 10398 10385 10382 10381 10378 10378 10380 10378 10376 10374 10370 10369 10369 10369 10367 10363 10359 10359 10359 10359 10357 10355 10355 10353 10349 10345 10343 10340 10338 10337 10336 10336 10337 10337 10337 10336 10333 10330 10327 10323 10321 10322 10322 10321 10321 10322 10323 10322 10321 10321 10320 10317 10314 10313 10314 10315 10315 10313 10311 10310 10309 10308 10307 10306 10304 10302 10301 10301 10300 10297 10294 10293 10292 10289 10285 10282 10280 10277
10393 10387 10388 10386 10381 10377 10379 10384 10378 10369 10368 10366 10361 10363 10365 10360 10355 10352 10350 10350 10350 10349 10348 10348 10346 10345 10344 10342 10340 10338 10339 10338 10334 10330 10329 10327 10324 10322 10320 10320 10320 10320 10320 10319 10318 10316 10313 10310 10310 10312 10310 10308 10308 10309 10309 10308 10308 10308 10307 10304 10303 10304 10305 10304 10303 10302 10301 10301 10300 10298 10297 10296 10296 10295 10294 10293 10291 10288 10286 10286 10284 10281 10276 10274 10272 10269
10372 10371 10375 10368 10361 10361 10362 10362 10359 10354 10356 10356 10350 10347 10346 10341 10336 10333 10332 10331 10329 10328 10329 10330 10329 10327 10325 10323 10322 10322 10322 10323 10320 10316 10316 10316 10312 10309 10307 10305 10305 10304 10302 10301 10302 10301 10298 10298 10300 10301 10298 10297 10297 10296 10295 10294 10294 10294 10293 10291 10293 10294 10294 10294 10293 10292 10292 10292 10290 10289 10288 10288 10288 10288 10287 10285 10282 10280 10280 10278 10276 10272 10269 10267 10265 10262
10352 10356 10358 10345 10339 10346 10348 10346 10344 10341 10342 10346 10342 10336 10331 10325 10318 10316 10316 10315 10313 10313 10312 10311 10310 10308 10306 10305 10305 10305 10306 10307 10305 10302 10302 10302 10300 10297 10295 10293 10291 10289 10288 10286 10287 10286 10285 10286 10287 10287 10285 10285 10285 10284 10283 10282 10281 10280 10280 10281 10283 10284 10283 10284 10284 10283 10283 10282 10280 10280 10280 10280 10281 10281 10279 10277 10275 10273 10273 10271 10268 10265 10262 10259 10257 10254
10336 10340 10336 10321 10320 10329 10334 10335 10333 10328 10326 10330 10329 10324 10321 10314 10304 10300 10300 10299 10298 10297 10295 10294 10294 10293 10290 10288 10287 10288 10290 10292 10290 10288 10287 10286 10286 10285 10284 10281 10279 10276 10275 10274 10274 10275 10275 10274 10273 10272 10272 10272 10272 10271 10270 10269 10268 10269 10270 10272 10273 10274 10274 10275 10275 10274 10273 10272 10272 10273 10274 10274 10274 10273 10272 10270 10269 10267 10265 10263 10261 10260 10257 10252 10248 10245